Location: Pisa
(43.7170°N, 10.3830°E)
Time: 20:35:17
(UTC+02:00)

ISS - Pass Details

Date: 16 May 2021
Orbit: 417 x 422 km, 51.6° (Epoch: 13 June)

Event Time Altitude Azimuth Distance (km) Brightness Sun altitude
Rises 21:13:01 0° 214° (SW) 2,348 0.1 -6.2°
Reaches altitude 10° 21:15:13 10° 205° (SSW) 1,489 -1.1 -6.5°
Maximum altitude 21:18:16 33° 139° (SE) 718 -3.1 -7.0°
Drops below altitude 10° 21:21:20 10° 73° (ENE) 1,501 -1.3 -7.4°
Sets 21:23:33 0° 64° (ENE) 2,369 -0.2 -7.8°
